sat.trackr.live / text

‹ back to catalog

STARLINK-31981

NORAD 60035 · 2024-111V

PAYLOAD ACTIVE UNKNOWN

§ Identity

Operator
Country
US
Launch date
2024-06-08
Launch site
AFETR
Launch vehicle
Mass (kg)
RCS (m²)

Purposes: comms

External: N2YO · Heavens-Above · Gunter

§ Orbital elements

Epoch: 2026-05-25T02:55:12.751968Z

Period
94.11 min
Inclination
53.1608°
Eccentricity
0.0001109
Mean motion
15.30193595 rev/d
Perigee alt
474.5 km
Apogee alt
476.0 km
Semi-major
6,853.4 km
B*
3.3179e-5
RAAN
80.7401°
Arg perigee
82.4352°
Mean anomaly
277.6775°
Rev number
11,066

§ Raw data

STARLINK-319811 60035U 24111V   26145.12167537  .00000624  00000+0  33179-4 0  99912 60035  53.1608  80.7401 0001109  82.4352 277.6775 15.30193595110660

JSON: /api/v1/satellites/60035 · /tle

For live sub-satellite position, see the globe view (requires WebGL).

§ Visibility from observer

Set your observer location to see the next 7 days of passes ≥ 10°. The values pass through the URL so the page stays shareable.

No JS? Fill the form by hand. The geolocation button needs JavaScript.